Date String (YYYY-MM-DD hh:mm:ss) UTC,Instrument flags,absolute air pressure of the measurement (hPa),sample flow rate (lpm),inlet stack bypass flow (lpm),air temperature of the measurement (°C),ambient temperature measured by the external sensor (°C),aerosol sample conditioner tube jacket temperature (°C),OPC LED temperature (°C),internal box temperature (°C),relative humidity of the measurement (%),span deviation,mass concentration of particles derived from Lorenz-Mie calculation of OPC scattering (μg/m³),mass concentration of particles derived from Lorenz-Mie calculation of OPC scattering (μg/m³),mass concentration of particles derived from Lorenz-Mie calculation of OPC scattering (μg/m³)
DateTimeUTC,F1_M11,P_M11,Q1_M11,Q2_M11,T1_M11,T2_M11,T3_M11,T4_M11,T5_M11,U1_M11,ZSPAN_M11,X2_M11,X0_M11,X1_M11
2024-03-26 18:00:00,SystemResetWarning,0820.6,5.01,000.00,019.6,019.2,000.0,028.0,021.4,15.1,0001.5,0013.22,0018.58,0012.71
2024-03-26 18:01:00,SystemResetWarning,0820.6,5.01,000.00,019.6,019.3,000.0,028.0,021.4,15.3,0001.5,0013.21,0018.64,0012.67
2024-03-26 18:02:00,SystemResetWarning,0820.6,4.99,000.00,019.6,019.3,000.0,028.0,021.4,15.2,0001.4,0013.21,0018.96,0012.65
2024-03-26 18:03:00,SystemResetWarning,0820.6,5.01,000.00,019.7,019.3,000.0,028.0,021.4,15.3,0001.4,0013.24,0018.84,0012.70
2024-03-26 18:04:00,SystemResetWarning,0820.6,5.01,000.00,019.7,019.3,000.0,028.0,021.5,15.3,0001.7,0013.29,0019.13,0012.73
2024-03-26 18:05:00,SystemResetWarning,0820.6,5.00,000.00,019.7,019.3,000.0,028.0,021.5,15.4,0001.7,0013.37,0018.86,0012.74
2024-03-26 18:06:00,SystemResetWarning,0820.6,5.00,000.00,019.7,019.3,000.0,028.0,021.5,15.4,0001.6,0013.39,0018.55,0012.77
2024-03-26 18:07:00,SystemResetWarning,0820.6,4.99,000.00,019.7,019.3,000.0,028.0,021.5,15.3,0001.6,0013.42,0018.56,0012.80
2024-03-26 18:08:00,SystemResetWarning,0820.7,5.00,000.00,019.7,019.3,000.0,028.0,021.5,15.3,0001.3,0013.43,0017.87,0012.80
2024-03-26 18:09:00,SystemResetWarning,0820.4,5.00,000.00,019.7,019.3,000.0,028.1,021.5,15.3,0001.4,0013.43,0017.45,0012.82
2024-03-26 18:10:00,SystemResetWarning,0820.5,5.00,000.00,019.7,019.4,000.0,028.1,021.5,15.2,0001.6,0013.44,0017.61,0012.84
2024-03-26 18:11:00,SystemResetWarning,0820.7,5.00,000.00,019.8,019.4,000.0,028.1,021.6,15.2,0001.7,0013.45,0018.98,0012.87
2024-03-26 18:12:00,SystemResetWarning,0820.5,5.00,000.00,019.8,019.4,000.0,028.1,021.6,15.5,0001.4,0013.47,0019.33,0012.90
2024-03-26 18:13:00,SystemResetWarning,0820.6,5.01,000.00,019.8,019.4,000.0,028.1,021.6,15.3,0001.4,0013.50,0019.13,0012.94
2024-03-26 18:14:00,SystemResetWarning,0820.6,4.99,000.00,019.8,019.4,000.0,028.1,021.6,15.3,0001.8,0013.53,0019.11,0012.95
2024-03-26 18:15:00,SystemResetWarning,0820.5,5.00,000.00,019.8,019.4,000.0,028.1,021.6,15.4,0001.7,0013.52,0019.11,0012.95
2024-03-26 18:16:00,SystemResetWarning,0820.5,5.00,000.00,019.8,019.4,000.0,028.1,021.6,15.4,0001.5,0013.51,0019.54,0012.96
2024-03-26 18:17:00,SystemResetWarning,0820.5,5.01,000.00,019.8,019.4,000.0,028.2,021.6,15.4,0001.7,0013.52,0019.67,0012.97
2024-03-26 18:18:00,SystemResetWarning,0820.7,5.00,000.00,019.9,019.5,000.0,028.2,021.7,15.3,0001.7,0013.51,0019.77,0012.94
2024-03-26 18:19:00,SystemResetWarning,0820.5,5.01,000.00,019.9,019.5,000.0,028.2,021.7,15.3,0001.7,0013.51,0019.88,0012.94
2024-03-26 18:20:00,SystemResetWarning,0820.6,5.00,000.00,019.9,019.5,000.0,028.2,021.7,15.5,0001.2,0013.52,0020.06,0012.94
2024-03-26 18:21:00,SystemResetWarning,0820.7,4.99,000.00,019.9,019.5,000.0,028.2,021.7,15.5,0001.1,0013.54,0019.77,0012.93
2024-03-26 18:22:00,SystemResetWarning,0820.7,5.00,000.00,019.9,019.5,000.0,028.2,021.7,15.4,0000.5,0013.47,0018.38,0012.87
2024-03-26 18:23:00,SystemResetWarning,0820.7,4.99,000.00,019.9,019.5,000.0,028.2,021.7,15.9,0000.5,0013.43,0018.10,0012.84
2024-03-26 18:24:00,SystemResetWarning,0820.7,5.00,000.00,019.9,019.6,000.0,028.2,021.7,15.8,0000.7,0013.37,0017.81,0012.80
2024-03-26 18:25:00,SystemResetWarning,0820.7,5.01,000.00,019.9,019.6,000.0,028.2,021.8,15.7,0000.3,0013.29,0017.41,0012.74
2024-03-26 18:26:00,SystemResetWarning,0820.7,5.00,000.00,020.0,019.6,000.0,028.3,021.8,15.6,0000.2,0013.27,0017.58,0012.72
2024-03-26 18:27:00,SystemResetWarning,0820.6,4.98,000.00,020.0,019.6,000.0,028.3,021.8,15.5,0000.4,0013.26,0017.99,0012.72
2024-03-26 18:28:00,SystemResetWarning,0820.6,5.01,000.00,020.0,019.6,000.0,028.3,021.8,15.3,0000.6,0013.24,0017.84,0012.71
2024-03-26 18:29:00,SystemResetWarning,0820.5,5.01,000.00,020.0,019.6,000.0,028.3,021.8,15.5,0000.5,0013.23,0017.70,0012.70
2024-03-26 18:30:00,SystemResetWarning,0820.6,5.00,000.00,020.0,019.6,000.0,028.3,021.8,15.5,0000.7,0013.22,0017.68,0012.67
2024-03-26 18:31:00,SystemResetWarning,0820.6,4.99,000.00,020.0,019.7,000.0,028.3,021.8,15.8,0000.9,0013.15,0017.39,0012.61
2024-03-26 18:32:00,SystemResetWarning,0820.6,4.99,000.00,020.0,019.7,000.0,028.4,021.9,15.5,0001.3,0013.09,0017.36,0012.56
2024-03-26 18:33:00,SystemResetWarning,0820.6,4.99,000.00,020.1,019.7,000.0,028.4,021.9,15.3,0002.2,0013.06,0018.03,0012.55
2024-03-26 18:34:00,SystemResetWarning,0820.6,5.01,000.00,020.1,019.7,000.0,028.4,021.9,15.4,0002.1,0013.06,0018.19,0012.56
2024-03-26 18:35:00,SystemResetWarning,0820.7,5.01,000.00,020.1,019.7,000.0,028.4,021.9,15.3,0001.7,0013.02,0018.62,0012.54
2024-03-26 18:36:00,SystemResetWarning,0820.8,5.00,000.00,020.1,019.7,000.0,028.4,021.9,15.3,0001.6,0013.02,0018.74,0012.52
2024-03-26 18:37:00,SystemResetWarning,0820.7,5.00,000.00,020.1,019.7,000.0,028.4,021.9,15.3,0001.8,0012.98,0018.66,0012.48
2024-03-26 18:38:00,SystemResetWarning,0820.8,4.99,000.00,020.1,019.7,000.0,028.4,021.9,15.3,0001.9,0012.91,0017.38,0012.41
2024-03-26 18:39:00,SystemResetWarning,0820.7,5.00,000.00,020.1,019.8,000.0,028.4,021.9,15.2,0001.2,0012.82,0017.15,0012.34
2024-03-26 18:40:00,SystemResetWarning,0820.7,4.99,000.00,020.2,019.8,000.0,028.5,022.0,15.2,0000.8,0012.76,0017.52,0012.30
2024-03-26 18:41:00,SystemResetWarning,0820.7,5.00,000.00,020.2,019.8,000.0,028.5,022.0,15.4,0000.7,0012.75,0017.54,0012.30
2024-03-26 18:42:00,SystemResetWarning,0820.7,5.00,000.00,020.2,019.8,000.0,028.5,022.0,15.3,0001.0,0012.79,0017.60,0012.33
2024-03-26 18:43:00,SystemResetWarning,0820.7,5.00,000.00,020.2,019.8,000.0,028.5,022.0,15.1,0001.0,0012.80,0017.80,0012.32
2024-03-26 18:44:00,SystemResetWarning,0820.8,5.00,000.00,020.2,019.8,000.0,028.5,022.0,15.1,0000.6,0012.78,0016.99,0012.30
2024-03-26 18:45:00,SystemResetWarning,0820.7,5.00,000.00,020.2,019.9,000.0,028.5,022.0,15.1,0000.3,0012.76,0016.67,0012.29
2024-03-26 18:46:00,SystemResetWarning,0820.7,5.01,000.00,020.3,019.9,000.0,028.5,022.1,15.0,0000.6,0012.75,0016.06,0012.28
2024-03-26 18:47:00,SystemResetWarning,0820.7,5.00,000.00,020.3,019.9,000.0,028.6,022.1,15.0,0000.6,0012.75,0015.91,0012.29
2024-03-26 18:48:00,SystemResetWarning,0820.7,5.00,000.00,020.3,019.9,000.0,028.6,022.1,15.2,0000.3,0012.78,0015.95,0012.30
2024-03-26 18:49:00,SystemResetWarning,0820.7,5.00,000.00,020.3,019.9,000.0,028.6,022.1,15.1,0000.3,0012.81,0015.99,0012.33
2024-03-26 18:50:00,SystemResetWarning,0820.8,5.00,000.00,020.3,019.9,000.0,028.6,022.1,15.1,0000.2,0012.84,0016.08,0012.35
2024-03-26 18:51:00,SystemResetWarning,0820.8,4.99,000.00,020.3,019.9,000.0,028.6,022.1,15.0,0000.3,0012.85,0015.63,0012.37
2024-03-26 18:52:00,SystemResetWarning,0820.8,5.00,000.00,020.3,019.9,000.0,028.6,022.1,15.0,0000.5,0012.87,0015.64,0012.38
2024-03-26 18:53:00,SystemResetWarning,0820.8,4.99,000.00,020.3,019.9,000.0,028.6,022.1,15.0,0000.7,0012.92,0015.75,0012.42
2024-03-26 18:54:00,SystemResetWarning,0820.8,5.00,000.00,020.3,019.9,000.0,028.6,022.1,15.0,0000.5,0012.94,0015.58,0012.46
2024-03-26 18:55:00,SystemResetWarning,0820.7,5.00,000.00,020.3,019.9,000.0,028.7,022.1,15.0,0000.2,0013.02,0015.92,0012.54
2024-03-26 18:56:00,SystemResetWarning,0820.8,5.00,000.00,020.4,020.0,000.0,028.7,022.2,15.1,0000.6,0013.11,0016.11,0012.59
2024-03-26 18:57:00,SystemResetWarning,0820.8,5.00,000.00,020.4,020.0,000.0,028.7,022.2,15.1,0000.9,0013.22,0016.28,0012.67
2024-03-26 18:58:00,SystemResetWarning,0820.8,5.00,000.00,020.4,020.0,000.0,028.7,022.2,15.2,0001.0,0013.33,0016.85,0012.78
2024-03-26 18:59:00,SystemResetWarning,0820.8,5.00,000.00,020.4,020.0,000.0,028.7,022.2,15.1,0001.0,0013.41,0017.09,0012.87
